Location: Brachbach
(49.1847°N, 9.7240°E)
Time: 05:20:50
(UTC+00:00)

PCSat - Pass Details

Date: 15 March 2026
Orbit: 780 x 790 km, 67.1° (Epoch: 13 April)

Event Time Altitude Azimuth Distance (km) Brightness Sun altitude
Exits shadow 00:31:10 16° 359° (N) 1,965 12.1 -41.2°
Drops below altitude 10° 00:33:04 10° 18° (NNE) 2,364 12.7 -41.1°
Sets 00:36:13 0° 36° (NE) 3,296 13.6 -40.9°
